Location: Bukit Setapoh
(2.2500°N, 113.8000°E)
Time: 23:05:26
(UTC+00:00)

ARIANE 44L R/B - Pass Details

Date: 25 July 2021
Orbit: 316 x 34086 km, 7.6° (Epoch: 18 September)

Event Time Altitude Azimuth Distance (km) Brightness Sun altitude
Rises 10:36:53 0° 267° (W) 10,908 10.4 -0.5°
Reaches altitude 10° 10:49:58 10° 260° (W) 5,831 8.6 -3.6°
Maximum altitude 11:00:18 31° 201° (SSW) 1,482 4.5 -6.1°
Drops below altitude 10° 11:03:23 10° 134° (SE) 1,701 4.3 -6.8°
Enters shadow 11:03:46 - 130° (SE) 1,838 4.4 -6.9°
